User: anonymous   Login
Location: Unspecified
(0.0000°N, 0.0000°E)
Time: 17:58:28
(UTC+01:00)
Language:

H-2A R/B - Orbit

View from above orbital plane
View from above orbital plane
View from above satellite
View from above satellite

Ground track
Ground track

The orbit data is extracted from the following two-line orbital elements,

1 26899U 01038B   15028.73650602  .00001973  00000-0  62473-3 0  1268
2 26899 028.2265 056.8962 7147937 334.7515 335.0655 02.44332041115033
Epoch (UTC): 28 January 2015 17:40:34
Eccentricity: 0.7147937
inclination: 28.2265°
perigee height: 263 km
apogee height: 33551 km
right ascension of ascending node: 56.8962°
argument of perigee: 334.7515°
revolutions per day: 2.44332041
mean anomaly at epoch: 335.0655°
orbit number at epoch: 11503

The dashed part of the orbit path shows where the satellite is in the earth's shadow,  

DLR